Regional Weather Roundup
Issued by NWS

Home | Current Version | Previous Version | Graphics & Text | Print | Product List | Glossary On
Versions: 1 2 3 4 5 6 7 8 9 10 11 12 13 14 15 16 17 18 19 20 21 22 23 24 25 26 27 28 29 30 31 32 33 34 35 36 37 38 39 40 41 42 43 44 45 46 47 48 49 50
000
ASUS45 KCYS 271710
RWRWY

WYOMING REGIONAL WEATHER ROUNDUP
NATIONAL WEATHER SERVICE CHEYENNE WY
1000 AM MST THU NOV 27 2014

NOTE:  "FAIR" INDICATES FEW OR NO CLOUDS BELOW 12,000 FEET
WITH NO SIGNIFICANT WEATHER AND/OR OBSTRUCTIONS TO VISIBILITY.

WYZ001-271800-
YELLOWSTONE NATIONAL PARK

CITY           SKY/WX    TMP DP  RH WIND       PRES   REMARKS
LK YELLOWSTONE   N/A     33  29  85 CALM      30.24R
W YELLOWSTONE  NOT AVBL

$$
WYZ002>013-054>058-071-098>099-271800-
NORTHERN WYOMING

CITY           SKY/WX    TMP DP  RH WIND       PRES   REMARKS
JACKSON        CLOUDY    43  27  52 SW15G22   30.22S
CODY           PTSUNNY   52  25  35 W8G18     30.02R
GREYBULL       CLOUDY    26  23  88 S6        30.07S WCI  19
WORLAND        PTSUNNY   22  20  92 VRB5      30.07S WCI  16
SHERIDAN       CLOUDY    27  24  89 CALM      29.95F
BUFFALO        CLOUDY    44  25  47 N7        29.98F
GILLETTE       CLOUDY    42  29  59 SW14      29.98F
HULETT           N/A     36  28  75 SW6       29.99  WCI  31
NEWCASTLE      FAIR      28  23  80 CALM      30.07F

$$
WYZ014>020-022>026-101>103-271800-
CENTRAL WYOMING

CITY           SKY/WX    TMP DP  RH WIND       PRES   REMARKS
BIG PINEY      CLOUDY   N/A N/A N/A NE5       30.32S
PINEDALE       CLOUDY    27  25  93 W6        30.34R WCI  20
DUBOIS         FAIR      43  23  45 W26G38    30.18S
LANDER         PTSUNNY   37  25  61 E8        30.11S WCI  31
RIVERTON       CLOUDY    41  25  53 S6        30.13S
CASPER         PTSUNNY   44  24  45 SW24G32   30.11S
DOUGLAS        PTSUNNY   48  29  47 NW10      30.11S

$$
WYZ021-027>030-104>119-271800-
SOUTHERN WYOMING

CITY           SKY/WX    TMP DP  RH WIND       PRES   REMARKS
EVANSTON       MOSUNNY   45  20  36 SW13      30.35R
FORT BRIDGER   FAIR      47  25  41 W9        30.35S
ROCK SPRINGS   CLOUDY    38  22  52 SW8       30.32S WCI  32
DIXON          FAIR      43  24  46 SW9G21    30.38S
RAWLINS        CLOUDY    43  20  39 W20G30    30.28S
SARATOGA       FAIR      45  19  36 S5        30.32S
LARAMIE        PTSUNNY   48  18  30 SW23G29   30.24F
CHEYENNE       PTSUNNY   50  17  27 W22G33    30.19R
TORRINGTON     CLOUDY    28  27  96 VRB5      30.10F WCI  23
PINE BLUFFS    FAIR      45  27  49 W14G23    30.15F

$$



USA.gov is the U.S. government's official web portal to all federal, state and local government web resources and services.